Hourly Data Report for July 24, 2016

OTTAWA INTL A
ONTARIO

45°19'00.000" N
75°40'00.000" W
114.90 m
6106001
71628
YOW

Download Data

Hourly Data (July 2016)
Hourly Data Report for July 24, 2016
TIME
LST
Temp Definition
°C
Dew Point Definition
°C
Rel Hum Definition
%
Precip. Amount Definition
mm

Wind Dir Definition
10's deg

Wind Spd Definition
km/h
Visibility Definition
km
Stn Press Definition
kPa
Hmdx Definition


Wind Chill Definition


Weather Definition


00:00 20.1 13.2 64   35 13 24.1 100.18     LegendNANA
01:00 18.1 12.2 68   36 10 24.1 100.20     Clear
02:00 18.1 12.4 69   1 4 24.1 100.23     LegendNANA
03:00 13.7 11.4 86   3 10 24.1 100.27     LegendNANA
04:00 15.1 12.1 82   6 7 24.1 100.30     Clear
05:00 13.8 11.0 83   1 8 24.1 100.34     LegendNANA
06:00 16.6 12.8 78   36 6 24.1 100.40     LegendNANA
07:00 18.6 12.2 66   36 8 24.1 100.45     Mostly Cloudy
08:00 19.8 12.2 61   36 5 24.1 100.45     LegendNANA
09:00 20.6 11.6 56   32 7 24.1 100.43     LegendNANA
10:00 21.8 11.4 51   34 7 24.1 100.42     Mostly Cloudy
11:00 23.0 11.6 48   23 5 24.1 100.40 25   LegendNANA
12:00 24.1 11.3 44   25 4 24.1 100.32 26   LegendNANA
13:00 26.0 12.0 41   31 14 24.1 100.26 28   Mostly Cloudy
14:00 26.3 11.1 38   28 5 24.1 100.20 28   LegendNANA
15:00 26.4 10.8 37   27 7 24.1 100.15 28   LegendNANA
16:00 25.9 13.3 45   27 7 24.1 100.14 29   Mostly Cloudy
17:00 26.0 13.4 45   18 7 24.1 100.13 29   LegendNANA
18:00 24.7 14.6 53   13 5 24.1 100.12 28   LegendNANA
19:00 23.0 15.5 62   13 6 24.1 100.12 27   Mostly Cloudy
20:00 21.9 14.7 63   14 9 24.1 100.10 26   LegendNANA
21:00 21.3 14.8 66   14 9 24.1 100.11 25   LegendNANA
22:00 20.0 14.7 71   13 9 24.1 100.05     Mostly Cloudy
23:00 19.3 14.4 73   13 10 24.1 100.02     LegendNANA

Notes on Data Quality.

Legend

  • E = Estimated
  • M = Missing
  • NA = Not Available*
  • [empty] = Indicates an unobserved value
Date modified: